Weather History for New Delhi, India

Change the Weather History Date:

Wednesday, February 19, 2014

  Actual Average Record
Temperature  
Mean Temperature 58 °F -  
Max Temperature 71 °F 79 °F 71 °F (2014)
Min Temperature 46 °F 56 °F 46 °F (2014)
Degree Days  
Heating Degree Days 6    
Growing Degree Days 8 (Base 50)    
Moisture  
Dew Point 46 °F    
Average Humidity 69    
Maximum Humidity 100    
Minimum Humidity 31    
Precipitation  
Precipitation 0.00 in - - ()
Sea Level Pressure  
Sea Level Pressure 30.02 in    
Wind  
Wind Speed 2 mph ()    
Max Wind Speed 8 mph    
Max Gust Speed -    
Visibility 0.9 miles    
Events Fog    
Averages and records for this station are not official NWS values.
T = Trace of Precipitation, MM = Missing Value Source: Averaged Metar Reports

Daily Weather History Graph

Daily Weather History Graph

Search for Another Location

Airport:

Trip Planner

Search our weather history database for the weather conditions in past years. The results will help you decide how hot, cold, wet, or windy it might be!

Date:

Astronomy

Feb. 19, 2014 Rise Set
Actual Time 6:56 AM IST 6:14 PM IST
Civil Twilight 6:32 AM IST 6:38 PM IST
Nautical Twilight 6:05 AM IST 7:06 PM IST
Astronomical Twilight 5:37 AM IST 7:33 PM IST
Moon 10:14 PM IST (2/19) 9:09 AM IST (2/19)
Length of Visible Light 12h 05m
Length of Day
11h 17m
Waning Gibbous, 83% of the Moon is Illuminated
Feb 19
Waning Gibbous
Feb 22
Last Quarter
Mar 1
New
Mar 8
First Quarter
Mar 16
Full

Hourly Weather History & Observations

Time (IST) Temp. Dew Point Humidity Pressure Visibility Wind Dir Wind Speed Gust Speed Precip Events Conditions
12:00 AM 50.0 °F 46.4 °F 87% 30.04 in 0.7 mi Calm Calm - N/A   Mist
12:30 AM 50.0 °F 46.4 °F 87% 30.04 in 0.7 mi Calm Calm - N/A   Mist
1:00 AM 50.0 °F 46.4 °F 87% 30.04 in 0.7 mi Calm Calm - N/A   Mist
1:30 AM 48.2 °F 44.6 °F 87% 30.04 in 0.7 mi Calm Calm - N/A   Mist
2:00 AM 48.2 °F 44.6 °F 87% 30.04 in 0.7 mi Calm Calm - N/A   Mist
2:30 AM 48.2 °F 44.6 °F 87% 30.01 in 0.7 mi Calm Calm - N/A   Mist
3:00 AM 48.2 °F 46.4 °F 93% 30.01 in 0.7 mi Calm Calm - N/A   Mist
3:30 AM 48.2 °F 44.6 °F 87% 30.01 in 0.6 mi Calm Calm - N/A Fog Shallow Fog
4:30 AM 46.4 °F 44.6 °F 93% 30.01 in 0.4 mi Calm Calm - N/A Fog Shallow Fog
5:00 AM 46.4 °F 46.4 °F 100% 30.01 in 0.4 mi Calm Calm - N/A Fog Shallow Fog
5:30 AM 46.4 °F 44.6 °F 93% 30.01 in 0.4 mi Calm Calm - N/A Fog Shallow Fog
6:00 AM 46.4 °F 44.6 °F 93% 30.04 in 0.4 mi Calm Calm - N/A Fog Shallow Fog
6:30 AM 46.4 °F 44.6 °F 93% 30.04 in 0.4 mi Calm Calm - N/A Fog Shallow Fog
7:00 AM 46.4 °F 44.6 °F 93% 30.04 in 0.4 mi Calm Calm - N/A Fog Shallow Fog
7:30 AM 46.4 °F 46.4 °F 100% 30.04 in 0.4 mi Calm Calm - N/A Fog Shallow Fog
8:00 AM 48.2 °F 48.2 °F 100% 30.06 in 0.4 mi Calm Calm - N/A Fog Shallow Fog
9:30 AM 59.0 °F 55.4 °F 88% 30.09 in 0.6 mi Calm Calm - N/A   Partly Cloudy
10:00 AM 62.6 °F 51.8 °F 68% 30.09 in 0.9 mi ESE 4.6 mph - N/A   Smoke
11:00 AM 68.0 °F 50.0 °F 52% 30.06 in 1.6 mi SE 5.8 mph - N/A   Smoke
12:00 PM 71.6 °F 44.6 °F 38% 30.06 in 2.2 mi SE 4.6 mph - N/A   Haze
12:30 PM 71.6 °F 44.6 °F 38% 30.06 in 2.2 mi SW 4.6 mph - N/A   Haze
1:00 PM 71.6 °F 39.2 °F 31% 30.04 in - West 4.6 mph - N/A   Haze
2:00 PM 71.6 °F 39.2 °F 31% 30.01 in 1.9 mi SW 5.8 mph - N/A   Haze
2:30 PM 71.6 °F 39.2 °F 31% 29.98 in 2.2 mi SW 5.8 mph - N/A   Haze
3:00 PM 71.6 °F 42.8 °F 35% 29.98 in - ESE 4.6 mph - N/A   Haze
4:00 PM 71.6 °F 46.4 °F 41% 29.98 in 1.4 mi East 5.8 mph - N/A   Haze
4:30 PM 71.6 °F 46.4 °F 41% 29.98 in 1.4 mi East 6.9 mph - N/A   Haze
5:00 PM 69.8 °F 48.2 °F 46% 29.98 in 1.4 mi East 8.1 mph - N/A   Haze
5:30 PM 69.8 °F 48.2 °F 46% 29.98 in 1.4 mi East 6.9 mph - N/A   Haze
6:00 PM 68.0 °F 48.2 °F 49% 29.98 in 1.3 mi East 3.5 mph - N/A   Smoke
6:30 PM 66.2 °F 48.2 °F 52% 29.98 in 1.2 mi East 3.5 mph - N/A   Smoke
7:00 PM 64.4 °F 48.2 °F 56% 29.98 in 1.2 mi East 3.5 mph - N/A   Smoke
7:30 PM 64.4 °F 48.2 °F 56% 29.98 in 1.1 mi Calm Calm - N/A   Smoke
8:00 PM 62.6 °F 48.2 °F 59% 30.01 in 1.0 mi Calm Calm - N/A   Smoke
8:30 PM 60.8 °F 48.2 °F 63% 30.01 in 1.0 mi East 3.5 mph - N/A   Smoke
9:30 PM 60.8 °F 48.2 °F 63% 30.01 in 0.7 mi ESE 5.8 mph - N/A   Smoke
10:00 PM 59.0 °F 50.0 °F 72% 30.01 in 0.7 mi ESE 4.6 mph - N/A   Smoke
10:30 PM 57.2 °F 50.0 °F 77% 30.01 in 0.7 mi ESE 4.6 mph - N/A   Partly Cloudy
11:00 PM 57.2 °F 50.0 °F 77% 30.01 in 0.6 mi Calm Calm - N/A   Partly Cloudy
11:30 PM 55.4 °F 48.2 °F 77% 29.98 in 0.6 mi East 3.5 mph - N/A Fog Shallow Fog